Theta_e
313 310 311 310 310 311 312 313 312 311 312 311 311 310 311 312 314 313 310 308 306 306 305 306 307 307 308 309 310 311 311 313 315 316 317 319 321 322 323 324 323 322 322 322
311 311 311 311 313 313 313 312 312 311 312 312 311 311 310 311 309 308 306 306 305 305 305 305 305 306 306 306 306 308 309 310 310 311 312 314 316 319 320 320 321 320 319 319
311 313 313 315 314 314 313 313 312 313 311 310 309 308 309 307 307 306 305 305 305 304 304 304 305 305 305 305 305 306 307 307 308 309 311 313 314 315 316 318 317 317 317 316
314 314 314 313 313 311 313 311 311 312 310 310 309 310 309 308 307 305 304 304 303 303 303 303 303 304 304 304 305 305 305 305 306 306 307 308 309 310 310 309 310 309 309 311
313 311 311 312 311 310 311 310 310 310 309 310 310 309 309 308 308 306 304 303 302 302 302 302 303 303 304 305 305 305 305 305 305 304 304 304 305 305 306 306 306 306 306 305
310 311 310 310 311 311 309 310 309 308 307 311 311 311 312 309 308 305 304 303 303 302 302 302 301 301 302 302 303 304 304 305 304 304 304 303 303 303 303 304 304 304 303 302
313 311 310 311 312 309 309 309 313 313 311 313 314 314 313 312 306 306 303 303 302 302 301 301 301 301 301 301 301 302 302 302 302 302 303 302 301 301 301 301 301 301 301 301
316 316 311 309 312 312 309 310 313 314 317 314 311 315 315 306 305 304 303 302 301 300 300 300 300 300 300 299 299 298 298 298 299 299 298 298 299 299 298 296 297 298 298 299
313 314 309 309 308 310 314 314 314 314 311 309 312 312 307 306 304 303 302 301 300 300 299 299 300 299 298 297 296 294 293 293 293 293 293 293 293 293 293 293 293 293 293 293
314 313 314 310 311 309 313 312 313 313 310 310 310 310 309 308 305 302 300 300 299 298 298 298 297 297 296 293 291 291 290 290 290 290 290 290 289 289 289 289 289 289 289 289
314 313 312 312 312 312 308 310 312 312 312 313 308 308 309 309 305 302 300 300 300 299 297 296 295 295 294 290 289 288 288 288 288 288 288 288 288 288 288 287 288 288 288 288
313 311 307 311 310 309 309 310 309 313 311 309 311 312 306 305 304 302 301 301 300 299 297 294 293 292 290 289 289 288 288 288 288 287 287 287 287 287 287 287 287 286 286 287
311 309 301 304 303 308 310 311 311 310 309 308 308 307 303 302 302 303 302 302 299 298 293 291 290 290 289 289 289 289 289 288 288 288 288 288 287 287 287 286 286 286 286 286
309 308 302 304 302 306 305 305 304 306 306 302 305 304 303 301 302 302 303 301 297 295 292 292 292 291 290 290 289 289 289 289 288 288 288 288 288 288 287 287 287 286 286 286
305 302 305 304 303 302 301 302 302 302 302 301 302 301 300 300 297 296 297 297 297 295 294 294 293 292 291 291 290 289 289 289 288 288 288 288 288 288 287 287 286 286 285 285
303 297 298 293 300 300 300 299 298 298 299 299 300 300 300 296 296 295 294 293 292 291 291 291 291 290 290 290 289 289 289 289 289 288 288 288 287 287 286 285 285 285 285 284
299 295 289 291 297 293 291 295 297 297 297 297 297 297 293 293 294 292 292 292 292 292 291 291 290 290 289 289 289 289 289 288 288 287 287 286 285 284 284 283 283 283 282 283
297 293 288 287 285 290 293 294 294 295 294 292 290 287 289 291 291 291 291 291 291 291 290 290 290 289 289 289 289 289 289 288 287 286 285 282 281 281 280 280 280 280 279 279
296 296 288 289 283 289 293 293 293 291 290 288 288 289 292 291 291 290 291 291 291 291 290 290 289 289 289 289 289 288 287 286 285 283 282 281 280 279 278 278 278 277 277 277
292 295 293 277 288 288 290 291 293 290 290 289 290 289 290 291 286 287 290 290 291 291 290 290 289 289 289 288 287 287 285 283 282 282 281 280 279 278 277 277 276 275 274 274
283 282 293 293 290 287 290 291 292 288 290 292 293 294 291 288 290 291 291 290 290 290 290 289 289 289 288 287 286 284 282 282 281 280 280 279 278 277 277 275 274 272 271 270
289 286 283 279 281 289 291 291 290 291 293 292 293 293 291 291 291 291 291 290 290 290 289 289 288 288 287 286 283 282 281 281 280 279 278 278 277 276 275 273 272 270 269 268
288 288 286 289 288 290 291 292 292 292 292 291 291 291 291 291 291 291 290 290 290 289 289 288 288 287 286 283 282 281 281 280 279 278 277 277 276 275 273 272 270 269 268 267
289 289 289 288 290 290 291 292 291 291 291 291 291 291 291 290 290 290 290 290 289 289 288 287 287 285 283 281 281 280 279 278 278 277 276 276 275 273 272 270 269 267 268 266
290 289 288 289 290 291 291 291 291 291 291 291 291 291 291 291 290 290 289 289 288 287 287 285 284 282 281 281 280 279 278 278 277 276 276 275 273 272 270 268 268 267 268 265
292 291 291 291 291 291 291 292 291 291 291 291 291 291 290 290 290 289 288 287 286 285 285 284 282 281 280 281 280 278 277 276 276 276 275 274 273 271 268 267 267 270 268 266
Wind_Speed
4 4 6 11 9 3 3 4 5 5 9 6 9 7 12 21 26 25 9 18 20 18 16 15 14 13 8 3 1 3 5 9 8 8 11 14 18 17 18 20 21 23 24 26
3 6 11 5 5 4 2 4 7 6 4 2 6 12 14 18 7 11 24 22 19 18 20 22 22 23 23 20 15 9 5 4 4 6 6 8 12 16 15 16 19 19 21 22
7 7 6 5 4 4 5 5 5 8 3 5 5 7 7 6 19 23 21 20 19 20 23 24 25 26 26 27 25 19 12 5 2 2 5 6 7 6 8 12 14 17 20 21
6 6 7 4 4 6 4 3 6 4 3 3 4 5 6 7 7 7 16 20 21 21 22 23 24 25 27 28 25 22 19 16 12 8 3 1 1 4 6 8 10 11 14 17
5 7 4 3 7 7 7 2 1 2 3 3 4 1 7 8 3 4 12 20 21 20 21 23 23 23 24 23 24 23 21 21 19 15 11 7 4 1 5 8 7 8 10 12
5 2 5 8 4 3 3 2 4 2 3 2 5 6 5 5 7 7 13 20 17 16 17 18 18 19 21 20 20 20 19 19 17 16 16 15 12 8 5 6 9 10 9 8
3 4 3 3 2 4 4 3 3 3 1 5 1 0 7 5 7 15 16 19 15 12 13 14 16 17 17 17 17 17 17 16 16 15 14 15 15 14 14 11 9 10 11 13
4 6 3 1 3 5 5 5 4 5 3 4 6 5 3 8 23 26 23 18 13 11 10 11 12 12 11 10 10 10 10 11 11 12 15 15 14 14 14 14 14 14 13 13
4 4 0 2 1 4 3 3 3 3 0 2 4 3 4 7 11 17 19 15 12 9 5 6 8 8 9 9 10 10 10 10 10 11 12 13 14 14 15 15 16 15 14 15
4 2 3 3 3 3 3 4 3 2 2 4 5 5 4 6 11 9 11 14 12 7 3 3 5 5 6 6 7 7 10 12 13 12 12 12 13 14 15 16 16 17 18 19
4 3 4 5 3 7 1 2 1 2 4 4 2 5 0 6 11 10 10 13 11 8 7 6 4 2 1 3 6 9 11 13 14 15 16 15 15 15 14 15 16 18 19 21
3 4 3 8 3 2 5 5 6 3 4 3 1 8 4 6 13 17 15 15 14 12 10 9 8 5 2 3 7 11 13 15 16 18 18 20 20 21 22 21 21 23 22 21
4 1 2 9 4 4 1 0 3 2 2 4 3 8 4 10 11 17 16 17 15 12 11 10 6 3 1 4 6 8 13 17 18 19 20 22 24 25 26 28 29 30 31 30
2 3 6 8 4 3 3 6 1 3 2 3 10 11 19 18 4 10 16 17 14 13 11 7 6 6 5 7 8 9 14 16 18 20 22 25 27 29 31 32 34 35 36 36
4 4 3 3 0 3 5 10 13 6 11 8 20 17 19 14 4 2 7 12 13 13 13 12 11 8 10 14 16 16 19 22 24 25 27 30 32 34 36 37 38 39 39 39
2 2 2 5 4 5 10 18 12 15 15 16 19 21 15 4 5 6 9 11 10 7 3 2 6 12 15 15 15 16 19 21 25 27 29 32 35 37 39 40 42 43 45 46
5 5 3 6 1 5 8 13 17 10 12 7 8 9 2 5 5 7 6 5 5 8 7 7 9 11 10 10 13 16 18 20 21 26 31 35 36 37 39 42 45 48 50 52
5 6 4 4 3 2 9 3 5 9 8 4 1 4 8 7 6 5 4 6 3 4 7 12 12 10 13 15 17 19 21 24 28 32 34 34 36 39 42 45 48 51 52 54
8 6 1 4 5 5 13 6 6 6 8 5 5 3 11 8 2 3 1 5 9 14 17 13 13 15 16 16 17 20 24 28 31 33 36 39 42 45 46 47 47 49 50 53
8 5 5 2 5 9 6 3 9 7 8 11 13 10 13 7 2 5 11 17 18 18 17 17 17 16 17 18 22 24 26 27 31 37 41 43 44 45 46 47 48 49 49 51
3 2 15 15 6 7 6 10 8 5 8 4 11 11 17 5 11 11 23 19 18 20 20 20 19 18 20 22 23 24 27 32 36 40 42 43 43 44 46 48 48 47 46 45
7 7 4 2 1 8 11 5 7 7 6 6 9 12 15 17 22 25 23 19 20 23 22 20 20 21 21 22 22 25 31 36 38 40 41 41 42 44 45 45 46 43 40 41
1 7 5 10 7 6 17 10 16 17 12 12 14 20 24 28 30 24 24 24 22 23 23 22 23 22 21 21 24 29 33 37 38 39 39 40 42 42 41 42 40 38 37 38
5 4 4 1 6 14 24 29 30 27 27 32 32 29 26 25 28 26 27 28 27 25 23 23 24 22 21 21 26 31 34 36 37 38 38 39 41 41 39 36 33 35 37 38
10 5 8 9 16 23 27 33 37 35 31 29 29 31 28 25 24 26 27 27 26 25 24 25 22 21 21 23 28 31 32 34 34 35 36 38 39 39 38 34 33 33 34 33
21 18 12 14 24 18 21 28 29 24 23 24 27 29 25 23 26 27 25 26 25 24 23 23 22 22 22 26 29 29 30 31 31 33 35 36 38 37 35 36 37 31 31 31
Wind_Direction
190 106 206 220 205 222 275 239 256 263 277 306 281 302 291 269 271 289 19 113 89 70 59 56 51 44 37 42 215 192 157 157 180 225 243 249 249 248 247 241 246 250 250 250
79 222 225 233 246 237 306 314 284 287 269 345 296 298 278 299 40 83 104 99 95 88 74 65 62 61 59 60 67 88 122 146 192 218 237 246 243 243 245 249 248 247 252 253
168 216 171 182 257 303 262 225 248 238 320 298 313 292 284 46 84 85 91 97 89 87 81 73 67 64 62 60 59 62 71 87 112 207 206 225 233 235 238 232 242 251 255 258
237 250 232 257 254 162 267 260 240 263 58 225 64 284 295 129 100 89 96 92 88 83 80 77 72 66 62 59 59 57 57 57 59 60 67 54 176 223 244 258 250 258 260 261
244 172 162 166 221 162 223 58 296 222 200 349 278 136 260 129 140 104 92 89 81 78 76 71 65 61 59 55 52 52 50 52 50 44 41 44 47 358 248 259 263 255 260 264
235 191 163 204 220 185 114 30 298 73 120 299 239 181 280 181 183 136 106 100 94 85 79 72 61 53 49 46 42 38 36 40 42 41 41 40 36 26 351 298 284 291 288 268
280 203 205 177 104 29 78 69 322 1 15 227 302 192 248 333 112 138 122 111 105 95 81 71 60 56 51 42 35 28 23 25 25 25 28 32 29 23 23 15 353 325 307 298
213 317 148 169 159 187 183 167 163 237 226 267 328 256 302 74 94 109 115 115 109 91 73 58 47 37 36 38 40 37 34 33 27 22 22 21 16 16 19 16 9 0 353 341
168 239 198 67 117 135 198 183 171 102 335 46 235 270 83 100 101 113 124 130 125 115 83 44 26 12 6 8 18 27 35 41 38 33 29 23 16 10 13 9 2 358 356 351
199 308 219 178 135 37 149 170 68 27 212 241 275 262 219 183 150 149 151 145 143 134 97 4 340 346 357 4 27 42 33 29 28 24 22 17 12 7 360 352 347 344 344 346
135 121 257 126 175 184 65 217 139 149 178 202 240 261 117 123 164 164 159 165 180 188 191 204 211 182 64 46 38 37 35 28 21 14 6 360 358 350 343 338 333 330 333 330
197 156 227 235 240 176 186 227 186 213 241 252 243 260 134 131 144 157 185 198 202 216 206 204 193 188 157 41 25 23 16 11 7 1 358 353 349 343 338 334 331 329 324 322
169 176 21 330 22 30 77 172 126 119 98 216 225 260 170 126 160 197 197 214 205 205 182 165 165 171 41 354 359 8 3 355 352 351 348 344 341 336 330 329 327 324 321 320
101 164 169 212 168 114 286 292 275 126 179 230 246 281 285 294 222 267 246 211 194 186 190 215 241 245 277 309 314 322 336 338 334 332 333 334 332 329 325 323 321 319 317 316
134 201 216 257 350 125 208 257 273 214 243 224 267 268 269 291 312 191 168 179 188 201 215 237 234 260 290 300 308 311 317 325 325 322 321 323 322 321 319 317 314 313 312 311
139 227 97 301 209 248 262 261 262 256 259 253 255 264 276 247 257 208 193 180 172 160 188 233 247 263 281 287 289 289 295 299 305 305 308 313 312 312 312 311 311 310 309 307
153 136 89 264 195 58 309 250 245 234 233 239 246 255 213 266 232 162 169 210 261 279 275 251 265 291 290 289 287 283 277 282 286 295 298 305 308 309 309 308 306 305 303 301
152 128 127 226 45 241 245 248 205 214 242 212 180 231 223 200 174 182 231 277 262 236 260 281 288 286 274 275 282 284 287 291 298 302 307 310 310 308 306 304 302 301 301 299
194 161 196 178 198 305 298 244 184 166 267 193 208 227 197 167 148 256 229 280 298 295 297 283 274 277 276 277 275 284 293 301 306 311 313 312 309 308 308 306 305 303 300 298
195 203 170 75 190 212 239 160 145 114 273 219 222 234 181 166 135 247 311 311 293 280 273 269 269 270 273 283 294 300 304 309 313 314 313 312 313 313 312 311 309 307 305 301
110 81 210 223 229 274 238 172 143 108 264 199 226 226 189 186 219 277 314 301 291 277 268 260 263 269 282 292 299 305 311 316 317 315 314 315 316 315 315 314 314 312 310 307
161 168 202 94 181 270 195 122 166 216 179 211 226 235 219 245 266 288 299 289 281 268 251 252 268 279 287 295 303 310 317 319 316 314 315 317 318 318 318 319 318 316 314 311
276 201 184 188 204 213 186 204 248 253 236 248 255 269 270 272 272 282 287 286 276 265 254 263 275 281 289 298 306 314 319 316 315 316 319 320 320 322 326 322 317 317 317 314
266 192 212 47 215 240 260 265 268 263 259 275 279 279 278 273 281 286 289 281 273 261 262 269 276 279 288 297 309 317 316 314 317 318 321 324 325 329 326 323 324 321 319 316
225 161 227 255 258 260 264 264 268 270 274 276 281 278 278 277 277 288 284 270 259 258 265 275 277 283 290 303 313 316 314 314 317 319 324 327 331 327 327 331 331 322 319 310
234 236 240 251 251 237 252 263 272 266 268 281 282 280 264 271 289 286 272 260 257 258 267 272 279 284 297 307 313 313 313 314 317 322 329 332 331 328 334 335 332 332 324 309